Weather History for St. Johns, AZ

Change the Weather History Date:

Friday, October 4, 2013

  Actual Average (KSOW) Record (KSOW)
Temperature  
Mean Temperature 44 °F -  
Max Temperature 55 °F 70 °F 84 °F (1980)
Min Temperature 32 °F 47 °F 30 °F (1971)
Degree Days  
Heating Degree Days 22    
Growing Degree Days 0 (Base 50)    
Moisture  
Dew Point 20 °F    
Average Humidity 30    
Maximum Humidity 46    
Minimum Humidity 15    
Precipitation  
Precipitation 0.00 in - - ()
Sea Level Pressure  
Sea Level Pressure 29.97 in    
Wind  
Wind Speed 9 mph (WNW)    
Max Wind Speed 18 mph    
Max Gust Speed 28 mph    
Visibility 10 miles    
Events      
Averages and records for this station are not official NWS values.
T = Trace of Precipitation, MM = Missing Value Source: NWS Daily Summary

Daily Weather History Graph

Daily Weather History Graph

Search for Another Location

Airport:

Trip Planner

Search our weather history database for the weather conditions in past years. The results will help you decide how hot, cold, wet, or windy it might be!

Date:

Astronomy

Oct. 04, 2013 Rise Set
Actual Time 6:14 AM MST 5:57 PM MST
Civil Twilight 5:49 AM MST 6:22 PM MST
Nautical Twilight 5:20 AM MST 6:51 PM MST
Astronomical Twilight 4:51 AM MST 7:20 PM MST
Moon 5:53 AM MST (10/4) 5:43 PM MST (10/4)
Length of Visible Light 12h 32m
Length of Day
11h 42m
Waning Crescent, 0% of the Moon is Illuminated
Oct 4
Waning Crescent
Oct 4
New
Oct 11
First Quarter
Oct 18
Full
Oct 26
Last Quarter

Hourly Weather History & Observations

Time (MST) Temp. Windchill Dew Point Humidity Pressure Visibility Wind Dir Wind Speed Gust Speed Precip Events Conditions
12:54 AM 52.0 °F - 30.0 °F 43% 29.76 in 10.0 mi SW 8.1 mph - N/A   Clear
1:54 AM 52.0 °F - 30.0 °F 43% 29.76 in 10.0 mi SSW 6.9 mph - N/A   Clear
2:54 AM 53.1 °F - 30.9 °F 43% 29.76 in 10.0 mi WNW 12.7 mph - N/A   Mostly Cloudy
3:05 AM 51.8 °F - 30.2 °F 44% 30.00 in 10.0 mi WNW 11.5 mph - N/A   Scattered Clouds
3:54 AM 48.9 °F - 28.9 °F 46% 29.80 in 10.0 mi West 10.4 mph - N/A   Mostly Cloudy
4:54 AM 46.9 °F - 26.1 °F 44% 29.83 in 10.0 mi West 11.5 mph - N/A   Mostly Cloudy
5:54 AM 45.0 °F 40.1 °F 23.0 °F 42% 29.87 in 10.0 mi WSW 9.2 mph - N/A   Mostly Cloudy
6:54 AM 45.0 °F 39.7 °F 21.9 °F 40% 29.91 in 10.0 mi West 10.4 mph - N/A   Mostly Cloudy
7:54 AM 46.9 °F - 24.1 °F 41% 29.95 in 10.0 mi WNW 11.5 mph - N/A   Overcast
8:54 AM 50.0 °F - 25.0 °F 38% 29.99 in 10.0 mi NW 4.6 mph - N/A   Overcast
9:54 AM 52.0 °F - 25.0 °F 35% 30.00 in 10.0 mi Calm Calm - N/A   Partly Cloudy
10:54 AM 55.0 °F - 26.1 °F 33% 29.99 in 10.0 mi Variable 4.6 mph - N/A   Clear
11:54 AM 59.0 °F - 23.0 °F 25% 29.97 in 10.0 mi WNW 11.5 mph 16.1 mph N/A   Clear
12:54 PM 60.1 °F - 21.0 °F 22% 29.94 in 10.0 mi West 10.4 mph 16.1 mph N/A   Clear
1:54 PM 61.0 °F - 19.0 °F 20% 29.93 in 10.0 mi WNW 18.4 mph 23.0 mph N/A   Clear
2:54 PM 63.0 °F - 17.1 °F 17% 29.92 in 10.0 mi WNW 17.3 mph 27.6 mph N/A   Clear
3:54 PM 61.0 °F - 14.0 °F 16% 29.96 in 10.0 mi NW 18.4 mph 24.2 mph N/A   Clear
4:54 PM 59.0 °F - 10.9 °F 15% 29.96 in 10.0 mi NNW 16.1 mph 20.7 mph N/A   Clear
5:54 PM 55.0 °F - 10.9 °F 17% 30.00 in 10.0 mi North 5.8 mph - N/A   Clear
6:54 PM 52.0 °F - 12.0 °F 20% 30.03 in 10.0 mi North 5.8 mph - N/A   Overcast
7:54 PM 50.0 °F - 12.0 °F 22% 30.06 in 10.0 mi NW 3.5 mph - N/A   Overcast
8:54 PM 51.1 °F - 12.0 °F 21% 30.07 in 10.0 mi NW 6.9 mph - N/A   Overcast
9:54 PM 48.0 °F - 12.0 °F 24% 30.11 in 10.0 mi NNW 8.1 mph - N/A   Mostly Cloudy
10:54 PM 45.0 °F 41.2 °F 12.0 °F 26% 30.13 in 10.0 mi NNW 6.9 mph - N/A   Clear
11:54 PM 39.9 °F 35.8 °F 12.0 °F 32% 30.15 in 10.0 mi NNW 5.8 mph - N/A   Clear